EDT,Max TemperatureF,Mean TemperatureF,Min TemperatureF,Max Dew PointF,MeanDew PointF,Min DewpointF,Max Humidity, Mean Humidity, Min Humidity, Max Sea Level PressureIn, Mean Sea Level PressureIn, Min Sea Level PressureIn, Max VisibilityMiles, Mean VisibilityMiles, Min VisibilityMiles, Max Wind SpeedMPH, Mean Wind SpeedMPH, Max Gust SpeedMPH,PrecipitationIn, CloudCover, Events, WindDirDegrees
2010-10-1,71,63,54,51,46,39,83,60,36,30.02,29.96,29.86,10,10,10,10,2,18,0.00,1,,5
2010-10-2,71,58,44,46,42,38,92,62,31,30.04,29.99,29.93,10,10,10,14,2,25,T,2,,350
2010-10-3,55,50,45,46,43,40,93,78,63,30.21,30.13,30.04,10,9,3,10,4,16,0.05,8,Rain,324
2010-10-4,55,50,45,46,44,42,93,82,71,30.28,30.24,30.19,10,8,2,8,3,13,0.07,8,Rain,322
2010-10-5,60,52,43,46,42,36,96,68,40,30.32,30.28,30.23,10,6,0,13,2,20,T,7,Fog,296
2010-10-6,70,56,42,41,36,33,82,55,27,30.21,30.12,30.03,10,10,10,13,4,20,0.00,1,,255
2010-10-7,75,62,48,48,43,38,71,54,36,30.11,30.06,30.02,10,10,10,9,3,13,0.00,0,,275
2010-10-8,78,64,49,50,44,38,93,59,24,30.15,30.10,30.06,10,10,7,8,1,12,0.00,0,,258
2010-10-9,81,66,50,49,42,34,77,48,18,30.12,30.07,30.02,10,10,10,6,1,13,0.00,0,,224
2010-10-10,84,69,53,48,44,40,72,47,22,30.05,29.99,29.92,10,10,9,9,1,12,0.00,0,,223
2010-10-11,85,71,56,51,45,40,77,50,22,29.95,29.91,29.85,10,10,10,9,1,15,0.00,0,,300
2010-10-12,81,68,55,54,50,44,78,57,36,29.96,29.91,29.87,10,10,10,10,1,17,T,2,,250
2010-10-13,71,63,55,55,54,53,93,75,57,30.04,29.99,29.94,10,9,5,14,2,24,0.05,5,Rain-Thunderstorm,318
2010-10-14,64,55,45,54,48,34,93,65,36,30.07,30.01,29.95,10,6,0,14,5,20,0.03,5,Fog-Rain,298
2010-10-15,65,55,45,38,36,34,76,55,34,30.10,29.93,29.79,10,10,10,16,6,24,0.00,3,,298
2010-10-16,68,54,40,41,37,35,86,58,30,30.23,30.16,30.09,10,10,8,10,1,15,0.00,0,,333
2010-10-17,78,62,45,40,38,37,71,48,25,30.17,30.09,30.01,10,10,10,8,3,14,0.00,0,,217
2010-10-18,80,67,54,47,43,39,56,43,30,30.02,29.94,29.85,10,10,10,9,2,16,0.00,0,,233
2010-10-19,68,55,46,46,43,39,74,61,47,29.97,29.92,29.86,10,10,10,5,1,,0.00,2,,220
2010-10-20,68,57,48,38,34,29,63,44,25,29.96,29.92,29.87,10,10,10,7,1,,0.00,1,,270
2010-10-21,70,60,49,37,31,23,54,39,23,30.03,29.90,29.83,10,10,10,17,7,28,0.00,0,,287
2010-10-22,66,53,40,29,25,21,55,37,19,30.24,30.17,30.04,10,10,10,7,1,15,0.00,0,,50
2010-10-23,79,63,46,34,30,26,49,33,17,30.25,30.19,30.14,10,10,4,8,2,14,0.00,0,,188
2010-10-24,79,69,58,50,44,34,56,45,34,30.14,30.06,29.91,10,10,6,13,3,21,0.00,1,,190
2010-10-25,71,65,58,59,56,50,100,78,56,29.89,29.83,29.75,10,5,0,10,4,21,0.73,7,Fog-Rain,188
2010-10-26,82,68,53,61,56,51,93,68,43,29.81,29.71,29.53,10,7,0,20,7,38,0.75,6,Fog-Rain-Thunderstorm,225
2010-10-27,74,63,52,52,47,39,93,61,29,29.98,29.91,29.79,10,10,2,9,3,17,0.00,3,,204
2010-10-28,66,55,43,49,35,27,67,46,24,30.27,30.09,29.97,10,10,10,16,8,26,0.00,2,,286
2010-10-29,56,48,40,32,29,26,67,51,35,30.35,30.29,30.25,10,10,7,9,2,14,0.00,4,,323
2010-10-30,70,52,34,32,26,18,76,45,14,30.24,30.09,29.94,10,10,10,15,4,29,0.00,0,,204
2010-10-31,68,56,44,37,32,27,60,46,31,30.21,30.04,29.96,10,10,10,9,5,17,0.00,0,,275